Wetterdaten: Dienstag, 10.03.2015
Datum Zeit Temp. A. Feuchte A. Luftdruck Regen Wind Richtung Richtung Sonnenschein ET UV Solar Taupunkt Windchill Windben Empfang
10.03.2015 00:00 0,0 C 78 % 1026,6 hPa 0,0 l/m 0,0 km/h (0 Bft) S-SW 205 0 min 0,000 mm 0,0 UV-I 0 W/m -3,4 C 0,0 C 0,0 km/h (0 Bft) 0,00 %
10.03.2015 00:15 -0,2 C 79 % 1026,6 hPa 0,0 l/m 0,0 km/h (0 Bft) S-SW 200 0 min 0,000 mm 0,0 UV-I 0 W/m -3,4 C -0,2 C 0,0 km/h (0 Bft) 0,00 %
10.03.2015 00:30 0,3 C 77 % 1026,4 hPa 0,0 l/m 0,0 km/h (0 Bft) S 186 0 min 0,000 mm 0,0 UV-I 0 W/m -3,2 C 0,3 C 0,0 km/h (0 Bft) 0,00 %
10.03.2015 00:45 0,3 C 76 % 1026,2 hPa 0,0 l/m 0,0 km/h (0 Bft) S-SW 193 0 min 0,000 mm 0,0 UV-I 0 W/m -3,4 C 0,3 C 0,0 km/h (0 Bft) 0,00 %
10.03.2015 01:00 0,0 C 76 % 1026,6 hPa 0,0 l/m 0,0 km/h (0 Bft) SW 214 0 min 0,000 mm 0,0 UV-I 0 W/m -3,7 C 0,0 C 0,0 km/h (0 Bft) 0,00 %
10.03.2015 01:15 -0,4 C 78 % 1026,7 hPa 0,0 l/m 0,0 km/h (0 Bft) S-SW 193 0 min 0,000 mm 0,0 UV-I 0 W/m -3,8 C -0,4 C 0,0 km/h (0 Bft) 0,00 %
10.03.2015 01:30 -0,5 C 80 % 1026,6 hPa 0,0 l/m 0,0 km/h (0 Bft) S 188 0 min 0,000 mm 0,0 UV-I 0 W/m -3,5 C -0,5 C 0,0 km/h (0 Bft) 0,00 %
10.03.2015 01:45 -0,5 C 81 % 1026,6 hPa 0,0 l/m 0,0 km/h (0 Bft) S-SW 201 0 min 0,000 mm 0,0 UV-I 0 W/m -3,3 C -0,5 C 0,0 km/h (0 Bft) 0,00 %
10.03.2015 02:00 -0,6 C 81 % 1026,6 hPa 0,0 l/m 0,0 km/h (0 Bft) S 178 0 min 0,000 mm 0,0 UV-I 0 W/m -3,4 C -0,6 C 0,0 km/h (0 Bft) 0,00 %
10.03.2015 02:15 -0,5 C 81 % 1026,7 hPa 0,0 l/m 0,0 km/h (0 Bft) S 177 0 min 0,000 mm 0,0 UV-I 0 W/m -3,3 C -0,5 C 0,0 km/h (0 Bft) 0,00 %
10.03.2015 02:30 -0,7 C 82 % 1026,4 hPa 0,0 l/m 0,0 km/h (0 Bft) S 183 0 min 0,000 mm 0,0 UV-I 0 W/m -3,4 C -0,7 C 0,0 km/h (0 Bft) 0,00 %
10.03.2015 02:45 -0,6 C 82 % 1026,5 hPa 0,0 l/m 0,0 km/h (0 Bft) S-SW 193 0 min 0,000 mm 0,0 UV-I 0 W/m -3,3 C -0,6 C 0,0 km/h (0 Bft) 0,00 %
10.03.2015 03:00 -0,7 C 82 % 1026,4 hPa 0,0 l/m 0,0 km/h (0 Bft) S 180 0 min 0,000 mm 0,0 UV-I 0 W/m -3,4 C -0,7 C 0,0 km/h (0 Bft) 0,00 %
10.03.2015 03:15 -0,9 C 82 % 1026,4 hPa 0,0 l/m 0,0 km/h (0 Bft) S 174 0 min 0,000 mm 0,0 UV-I 0 W/m -3,6 C -0,9 C 0,0 km/h (0 Bft) 0,00 %
10.03.2015 03:30 -0,7 C 82 % 1026,4 hPa 0,0 l/m 0,0 km/h (0 Bft) S 184 0 min 0,000 mm 0,0 UV-I 0 W/m -3,4 C -0,7 C 0,0 km/h (0 Bft) 0,00 %
10.03.2015 03:45 -0,6 C 81 % 1026,4 hPa 0,0 l/m 0,0 km/h (0 Bft) S 191 0 min 0,000 mm 0,0 UV-I 0 W/m -3,4 C -0,6 C 0,0 km/h (0 Bft) 0,00 %
10.03.2015 04:00 -1,0 C 81 % 1026,6 hPa 0,0 l/m 0,0 km/h (0 Bft) S-SW 197 0 min 0,000 mm 0,0 UV-I 0 W/m -3,8 C -1,0 C 0,0 km/h (0 Bft) 0,00 %
10.03.2015 04:15 -1,0 C 82 % 1026,6 hPa 0,0 l/m 0,0 km/h (0 Bft) S-SW 199 0 min 0,000 mm 0,0 UV-I 0 W/m -3,7 C -1,0 C 0,0 km/h (0 Bft) 0,00 %
10.03.2015 04:30 -1,3 C 82 % 1026,8 hPa 0,0 l/m 0,0 km/h (0 Bft) S-SW 203 0 min 0,000 mm 0,0 UV-I 0 W/m -4,0 C -1,3 C 0,0 km/h (0 Bft) 0,00 %
10.03.2015 04:45 -1,5 C 83 % 1026,8 hPa 0,0 l/m 0,0 km/h (0 Bft) S-SW 209 0 min 0,000 mm 0,0 UV-I 0 W/m -4,0 C -1,5 C 0,0 km/h (0 Bft) 0,00 %
10.03.2015 05:00 -1,4 C 83 % 1026,6 hPa 0,0 l/m 0,0 km/h (0 Bft) S-SW 196 0 min 0,000 mm 0,0 UV-I 0 W/m -3,9 C -1,4 C 0,0 km/h (0 Bft) 0,00 %
10.03.2015 05:15 -1,5 C 83 % 1026,7 hPa 0,0 l/m 0,0 km/h (0 Bft) S-SW 202 0 min 0,000 mm 0,0 UV-I 0 W/m -4,0 C -1,5 C 0,0 km/h (0 Bft) 0,00 %
10.03.2015 05:30 -1,4 C 84 % 1026,9 hPa 0,0 l/m 0,0 km/h (0 Bft) S-SW 194 0 min 0,000 mm 0,0 UV-I 0 W/m -3,7 C -1,4 C 0,0 km/h (0 Bft) 0,00 %
10.03.2015 05:45 -1,8 C 85 % 1027,2 hPa 0,0 l/m 0,0 km/h (0 Bft) S-SW 201 0 min 0,000 mm 0,0 UV-I 0 W/m -4,0 C -1,8 C 0,0 km/h (0 Bft) 0,00 %
10.03.2015 06:00 -1,9 C 85 % 1027,1 hPa 0,0 l/m 0,0 km/h (0 Bft) S-SW 197 0 min 0,000 mm 0,0 UV-I 0 W/m -4,1 C -1,9 C 0,0 km/h (0 Bft) 0,00 %
10.03.2015 06:15 -1,9 C 85 % 1027,4 hPa 0,0 l/m 0,0 km/h (0 Bft) S-SW 203 0 min 0,000 mm 0,0 UV-I 0 W/m -4,1 C -1,9 C 0,0 km/h (0 Bft) 0,00 %
10.03.2015 06:30 -1,6 C 85 % 1027,3 hPa 0,0 l/m 0,0 km/h (0 Bft) S-SW 208 0 min 0,000 mm 0,0 UV-I 0 W/m -3,8 C -1,6 C 0,0 km/h (0 Bft) 0,00 %
10.03.2015 06:45 -2,0 C 85 % 1027,5 hPa 0,0 l/m 0,0 km/h (0 Bft) S 191 15 min 0,000 mm 0,0 UV-I 45 W/m -4,2 C -2,0 C 0,0 km/h (0 Bft) 0,00 %
10.03.2015 07:00 -1,7 C 86 % 1027,4 hPa 0,0 l/m 0,0 km/h (0 Bft) S-SW 207 15 min 0,000 mm 0,0 UV-I 90 W/m -3,7 C -1,7 C 0,0 km/h (0 Bft) 0,00 %
10.03.2015 07:15 -1,1 C 85 % 1027,3 hPa 0,0 l/m 0,0 km/h (0 Bft) S 188 15 min 0,000 mm 1,0 UV-I 125 W/m -3,3 C -1,1 C 0,0 km/h (0 Bft) 0,00 %
10.03.2015 07:30 0,1 C 82 % 1026,9 hPa 0,0 l/m 0,0 km/h (0 Bft) S-SW 199 15 min 0,000 mm 1,0 UV-I 145 W/m -2,6 C 0,1 C 0,0 km/h (0 Bft) 0,00 %
10.03.2015 07:45 1,6 C 75 % 1025,5 hPa 0,0 l/m 0,0 km/h (0 Bft) S-SW 199 15 min 0,000 mm 1,0 UV-I 156 W/m -2,3 C 1,6 C 0,0 km/h (0 Bft) 0,00 %
10.03.2015 08:00 2,9 C 71 % 1025,3 hPa 0,0 l/m 0,0 km/h (0 Bft) S-SW 208 15 min 0,000 mm 1,0 UV-I 170 W/m -1,8 C 2,9 C 0,0 km/h (0 Bft) 0,00 %
10.03.2015 08:15 3,6 C 66 % 1024,9 hPa 0,0 l/m 0,0 km/h (0 Bft) S-SW 192 0 min 0,000 mm 1,0 UV-I 110 W/m -2,1 C 3,6 C 0,0 km/h (0 Bft) 0,00 %
10.03.2015 08:30 3,2 C 68 % 1025,2 hPa 0,0 l/m 0,0 km/h (0 Bft) SW 228 0 min 0,000 mm 1,0 UV-I 68 W/m -2,1 C 3,2 C 0,0 km/h (0 Bft) 0,00 %
10.03.2015 08:45 1,9 C 69 % 1025,5 hPa 0,0 l/m 0,0 km/h (0 Bft) S-SW 201 0 min 0,000 mm 1,0 UV-I 62 W/m -3,2 C 1,9 C 0,0 km/h (0 Bft) 0,00 %
10.03.2015 09:00 1,8 C 71 % 1025,4 hPa 0,0 l/m 0,4 km/h (0 Bft) W 276 0 min 0,000 mm 2,0 UV-I 78 W/m -2,9 C 1,8 C 4,0 km/h (1 Bft) 0,00 %
10.03.2015 09:15 2,1 C 70 % 1025,6 hPa 0,0 l/m 0,0 km/h (0 Bft) S-SW 213 0 min 0,000 mm 2,0 UV-I 91 W/m -2,8 C 2,1 C 0,0 km/h (0 Bft) 0,00 %
10.03.2015 09:30 3,0 C 70 % 1025,2 hPa 0,0 l/m 0,4 km/h (0 Bft) W-SW 256 0 min 0,000 mm 2,0 UV-I 129 W/m -1,9 C 3,0 C 4,0 km/h (1 Bft) 0,00 %
10.03.2015 09:45 4,5 C 64 % 1024,9 hPa 0,0 l/m 0,0 km/h (0 Bft) W-SW 251 0 min 0,000 mm 2,0 UV-I 142 W/m -1,7 C 4,5 C 0,0 km/h (0 Bft) 0,00 %
10.03.2015 10:00 5,5 C 61 % 1024,8 hPa 0,0 l/m 1,8 km/h (1 Bft) W-NW 284 0 min 0,000 mm 2,0 UV-I 167 W/m -1,4 C 5,5 C 4,0 km/h (1 Bft) 0,00 %
10.03.2015 10:15 5,6 C 60 % 1024,7 hPa 0,0 l/m 1,8 km/h (1 Bft) W-SW 256 0 min 0,000 mm 2,0 UV-I 189 W/m -1,5 C 5,6 C 4,0 km/h (1 Bft) 0,00 %
10.03.2015 10:30 6,1 C 59 % 1024,7 hPa 0,0 l/m 1,8 km/h (1 Bft) W-NW 296 0 min 0,000 mm 3,0 UV-I 214 W/m -1,3 C 6,1 C 4,0 km/h (1 Bft) 0,00 %
10.03.2015 10:45 6,8 C 57 % 1024,4 hPa 0,0 l/m 0,4 km/h (0 Bft) W-SW 256 0 min 0,000 mm 3,0 UV-I 112 W/m -1,1 C 6,8 C 4,0 km/h (1 Bft) 0,00 %
10.03.2015 11:00 7,7 C 54 % 1024,3 hPa 0,0 l/m 0,0 km/h (0 Bft) W-SW 254 0 min 0,000 mm 3,0 UV-I 111 W/m -1,0 C 7,7 C 0,0 km/h (0 Bft) 0,00 %
10.03.2015 11:15 7,7 C 52 % 1024,1 hPa 0,0 l/m 0,0 km/h (0 Bft) W-SW 251 0 min 0,000 mm 3,0 UV-I 107 W/m -1,5 C 7,7 C 0,0 km/h (0 Bft) 0,00 %
10.03.2015 11:30 7,8 C 52 % 1024,1 hPa 0,0 l/m 1,4 km/h (1 Bft) S-SW 203 15 min 0,000 mm 3,0 UV-I 334 W/m -1,4 C 7,8 C 4,0 km/h (1 Bft) 0,00 %
10.03.2015 11:45 7,9 C 52 % 1024,0 hPa 0,0 l/m 0,0 km/h (0 Bft) W-SW 246 15 min 0,000 mm 3,0 UV-I 374 W/m -1,3 C 7,9 C 0,0 km/h (0 Bft) 0,00 %
10.03.2015 12:00 8,5 C 50 % 1023,6 hPa 0,0 l/m 2,9 km/h (1 Bft) W-SW 254 15 min 0,000 mm 3,0 UV-I 393 W/m -1,3 C 8,5 C 4,0 km/h (1 Bft) 0,00 %
10.03.2015 12:15 9,0 C 49 % 1023,5 hPa 0,0 l/m 0,0 km/h (0 Bft) SW 222 15 min 0,000 mm 2,0 UV-I 395 W/m -1,1 C 9,0 C 0,0 km/h (0 Bft) 0,00 %
10.03.2015 12:30 9,4 C 48 % 1023,1 hPa 0,0 l/m 0,4 km/h (0 Bft) S-SW 203 15 min 0,000 mm 2,0 UV-I 400 W/m -1,0 C 9,4 C 4,0 km/h (1 Bft) 0,00 %
10.03.2015 12:45 10,1 C 44 % 1022,9 hPa 0,0 l/m 0,7 km/h (0 Bft) W-SW 255 15 min 0,000 mm 2,0 UV-I 405 W/m -1,6 C 10,1 C 4,0 km/h (1 Bft) 0,00 %
10.03.2015 13:00 10,5 C 45 % 1022,6 hPa 0,0 l/m 2,2 km/h (1 Bft) W-SW 252 15 min 0,000 mm 2,0 UV-I 410 W/m -0,9 C 10,5 C 4,0 km/h (1 Bft) 0,00 %
10.03.2015 13:15 10,9 C 45 % 1022,3 hPa 0,0 l/m 0,0 km/h (0 Bft) S-SW 199 15 min 0,000 mm 2,0 UV-I 415 W/m -0,6 C 10,9 C 0,0 km/h (0 Bft) 0,00 %
10.03.2015 13:30 11,4 C 44 % 1022,1 hPa 0,0 l/m 1,8 km/h (1 Bft) W-SW 256 15 min 0,000 mm 2,0 UV-I 420 W/m -0,4 C 11,4 C 4,0 km/h (1 Bft) 0,00 %
10.03.2015 13:45 11,8 C 38 % 1021,7 hPa 0,0 l/m 0,4 km/h (0 Bft) S-SW 196 15 min 0,000 mm 2,0 UV-I 425 W/m -2,0 C 11,8 C 4,0 km/h (1 Bft) 0,00 %
10.03.2015 14:00 11,9 C 42 % 1021,8 hPa 0,0 l/m 0,0 km/h (0 Bft) S 182 15 min 0,000 mm 2,0 UV-I 430 W/m -0,6 C 11,9 C 0,0 km/h (0 Bft) 0,00 %
10.03.2015 14:15 12,2 C 42 % 1021,6 hPa 0,0 l/m 0,4 km/h (0 Bft) W-SW 249 15 min 0,000 mm 2,0 UV-I 435 W/m -0,3 C 12,2 C 4,0 km/h (1 Bft) 0,00 %
10.03.2015 14:30 12,5 C 34 % 1021,3 hPa 0,0 l/m 0,7 km/h (0 Bft) W-SW 249 15 min 0,000 mm 2,0 UV-I 440 W/m -2,9 C 12,5 C 4,0 km/h (1 Bft) 0,00 %
10.03.2015 14:45 12,8 C 33 % 1021,4 hPa 0,0 l/m 2,2 km/h (1 Bft) W-SW 256 15 min 0,000 mm 2,0 UV-I 445 W/m -3,1 C 12,8 C 4,0 km/h (1 Bft) 0,00 %
10.03.2015 15:00 13,0 C 32 % 1021,2 hPa 0,0 l/m 2,2 km/h (1 Bft) W-SW 252 15 min 0,000 mm 2,0 UV-I 450 W/m -3,3 C 13,0 C 4,0 km/h (1 Bft) 0,00 %
10.03.2015 15:15 12,8 C 29 % 1021,3 hPa 0,0 l/m 0,7 km/h (0 Bft) W-SW 251 15 min 0,000 mm 2,0 UV-I 445 W/m -4,8 C 12,8 C 4,0 km/h (1 Bft) 0,00 %
10.03.2015 15:30 12,8 C 30 % 1021,3 hPa 0,0 l/m 0,0 km/h (0 Bft) S 190 15 min 0,000 mm 1,0 UV-I 440 W/m -4,3 C 12,8 C 0,0 km/h (0 Bft) 0,00 %
10.03.2015 15:45 12,8 C 31 % 1021,1 hPa 0,0 l/m 0,0 km/h (0 Bft) N 351 15 min 0,000 mm 1,0 UV-I 435 W/m -3,9 C 12,8 C 0,0 km/h (0 Bft) 0,00 %
10.03.2015 16:00 12,7 C 32 % 1020,9 hPa 0,0 l/m 0,0 km/h (0 Bft) SW 231 15 min 0,000 mm 1,0 UV-I 429 W/m -3,6 C 12,7 C 0,0 km/h (0 Bft) 0,00 %
10.03.2015 16:15 13,6 C 30 % 1020,9 hPa 0,0 l/m 0,0 km/h (0 Bft) S 182 15 min 0,000 mm 1,0 UV-I 419 W/m -3,6 C 13,6 C 0,0 km/h (0 Bft) 0,00 %
10.03.2015 16:30 14,1 C 27 % 1021,0 hPa 0,0 l/m 0,0 km/h (0 Bft) W-SW 253 15 min 0,000 mm 1,0 UV-I 371 W/m -4,6 C 14,1 C 0,0 km/h (0 Bft) 0,00 %
10.03.2015 16:45 13,7 C 31 % 1021,1 hPa 0,0 l/m 0,0 km/h (0 Bft) SW 216 15 min 0,000 mm 1,0 UV-I 307 W/m -3,1 C 13,7 C 0,0 km/h (0 Bft) 0,00 %
10.03.2015 17:00 12,9 C 32 % 1021,2 hPa 0,0 l/m 1,8 km/h (1 Bft) SW 223 15 min 0,000 mm 1,0 UV-I 236 W/m -3,4 C 12,9 C 4,0 km/h (1 Bft) 0,00 %
10.03.2015 17:15 12,3 C 33 % 1021,7 hPa 0,0 l/m 0,0 km/h (0 Bft) S-SW 194 15 min 0,000 mm 0,0 UV-I 156 W/m -3,5 C 12,3 C 0,0 km/h (0 Bft) 0,00 %
10.03.2015 17:30 11,4 C 36 % 1022,3 hPa 0,0 l/m 0,0 km/h (0 Bft) S-SW 202 0 min 0,000 mm 0,0 UV-I 40 W/m -3,1 C 11,4 C 0,0 km/h (0 Bft) 0,00 %
10.03.2015 17:45 10,2 C 41 % 1022,5 hPa 0,0 l/m 0,0 km/h (0 Bft) S-SW 201 0 min 0,000 mm 0,0 UV-I 6 W/m -2,5 C 10,2 C 0,0 km/h (0 Bft) 0,00 %
10.03.2015 18:00 8,9 C 44 % 1022,9 hPa 0,0 l/m 0,0 km/h (0 Bft) S-SW 206 0 min 0,000 mm 0,0 UV-I 0 W/m -2,7 C 8,9 C 0,0 km/h (0 Bft) 0,00 %
10.03.2015 18:15 8,1 C 47 % 1023,2 hPa 0,0 l/m 0,0 km/h (0 Bft) SW 219 0 min 0,000 mm 0,0 UV-I 0 W/m -2,5 C 8,1 C 0,0 km/h (0 Bft) 0,00 %
10.03.2015 18:30 7,7 C 48 % 1023,3 hPa 0,0 l/m 0,0 km/h (0 Bft) S-SW 195 0 min 0,000 mm 0,0 UV-I 0 W/m -2,6 C 7,7 C 0,0 km/h (0 Bft) 0,00 %
10.03.2015 18:45 7,5 C 50 % 1023,5 hPa 0,0 l/m 0,0 km/h (0 Bft) S-SO 152 0 min 0,000 mm 0,0 UV-I 0 W/m -2,2 C 7,5 C 0,0 km/h (0 Bft) 0,00 %
10.03.2015 19:00 7,2 C 50 % 1023,6 hPa 0,0 l/m 0,0 km/h (0 Bft) S 182 0 min 0,000 mm 0,0 UV-I 0 W/m -2,5 C 7,2 C 0,0 km/h (0 Bft) 0,00 %
10.03.2015 19:15 7,4 C 50 % 1023,7 hPa 0,0 l/m 0,0 km/h (0 Bft) S 179 0 min 0,000 mm 0,0 UV-I 0 W/m -2,3 C 7,4 C 0,0 km/h (0 Bft) 0,00 %
10.03.2015 19:30 6,6 C 54 % 1023,9 hPa 0,0 l/m 0,0 km/h (0 Bft) S 180 0 min 0,000 mm 0,0 UV-I 0 W/m -2,0 C 6,6 C 0,0 km/h (0 Bft) 0,00 %
10.03.2015 19:45 6,1 C 56 % 1023,9 hPa 0,0 l/m 0,0 km/h (0 Bft) S-SW 192 0 min 0,000 mm 0,0 UV-I 0 W/m -2,0 C 6,1 C 0,0 km/h (0 Bft) 0,00 %
10.03.2015 20:00 5,8 C 58 % 1024,0 hPa 0,0 l/m 0,0 km/h (0 Bft) SW 231 0 min 0,000 mm 0,0 UV-I 0 W/m -1,8 C 5,8 C 0,0 km/h (0 Bft) 0,00 %
10.03.2015 20:15 5,6 C 59 % 1024,3 hPa 0,0 l/m 0,0 km/h (0 Bft) SW 216 0 min 0,000 mm 0,0 UV-I 0 W/m -1,8 C 5,6 C 0,0 km/h (0 Bft) 0,00 %
10.03.2015 20:30 5,7 C 59 % 1024,2 hPa 0,0 l/m 0,0 km/h (0 Bft) S 170 0 min 0,000 mm 0,0 UV-I 0 W/m -1,7 C 5,7 C 0,0 km/h (0 Bft) 0,00 %
10.03.2015 20:45 5,5 C 59 % 1024,1 hPa 0,0 l/m 0,0 km/h (0 Bft) S 182 0 min 0,000 mm 0,0 UV-I 0 W/m -1,9 C 5,5 C 0,0 km/h (0 Bft) 0,00 %
10.03.2015 21:00 5,3 C 61 % 1024,3 hPa 0,0 l/m 0,0 km/h (0 Bft) S-SW 203 0 min 0,000 mm 0,0 UV-I 0 W/m -1,6 C 5,3 C 0,0 km/h (0 Bft) 0,00 %
10.03.2015 21:15 5,2 C 61 % 1024,2 hPa 0,0 l/m 0,0 km/h (0 Bft) S-SW 200 0 min 0,000 mm 0,0 UV-I 0 W/m -1,7 C 5,2 C 0,0 km/h (0 Bft) 0,00 %
10.03.2015 21:30 4,9 C 62 % 1024,3 hPa 0,0 l/m 0,0 km/h (0 Bft) S 174 0 min 0,000 mm 0,0 UV-I 0 W/m -1,8 C 4,9 C 0,0 km/h (0 Bft) 0,00 %
10.03.2015 21:45 4,6 C 62 % 1024,3 hPa 0,0 l/m 0,0 km/h (0 Bft) S-SW 202 0 min 0,000 mm 0,0 UV-I 0 W/m -2,0 C 4,6 C 0,0 km/h (0 Bft) 0,00 %
10.03.2015 22:00 4,5 C 62 % 1024,4 hPa 0,0 l/m 0,0 km/h (0 Bft) N-NW 342 0 min 0,000 mm 0,0 UV-I 0 W/m -2,1 C 4,5 C 0,0 km/h (0 Bft) 0,00 %
10.03.2015 22:15 4,4 C 63 % 1024,5 hPa 0,0 l/m 0,0 km/h (0 Bft) S 174 0 min 0,000 mm 0,0 UV-I 0 W/m -2,0 C 4,4 C 0,0 km/h (0 Bft) 0,00 %
10.03.2015 22:30 4,3 C 63 % 1024,2 hPa 0,0 l/m 0,0 km/h (0 Bft) S 185 0 min 0,000 mm 0,0 UV-I 0 W/m -2,1 C 4,3 C 0,0 km/h (0 Bft) 0,00 %
10.03.2015 22:45 4,4 C 61 % 1024,3 hPa 0,0 l/m 0,0 km/h (0 Bft) S-SW 195 0 min 0,000 mm 0,0 UV-I 0 W/m -2,4 C 4,4 C 0,0 km/h (0 Bft) 0,00 %
10.03.2015 23:00 4,4 C 62 % 1024,3 hPa 0,0 l/m 1,4 km/h (1 Bft) S-SW 208 0 min 0,000 mm 0,0 UV-I 0 W/m -2,2 C 4,4 C 4,0 km/h (1 Bft) 0,00 %
10.03.2015 23:15 4,3 C 62 % 1024,0 hPa 0,0 l/m 0,0 km/h (0 Bft) S 172 0 min 0,000 mm 0,0 UV-I 0 W/m -2,3 C 4,3 C 0,0 km/h (0 Bft) 0,00 %
10.03.2015 23:30 4,4 C 62 % 1023,8 hPa 0,0 l/m 0,0 km/h (0 Bft) SW 218 0 min 0,000 mm 0,0 UV-I 0 W/m -2,2 C 4,4 C 0,0 km/h (0 Bft) 0,00 %
10.03.2015 23:45 4,7 C 60 % 1023,7 hPa 0,0 l/m 0,4 km/h (0 Bft) W-SW 256 0 min 0,000 mm 0,0 UV-I 0 W/m -2,4 C 4,7 C 4,0 km/h (1 Bft) 0,00 %
_ Min-Zeit 06:45 16:30 16:00 - 00:00 - - - - - - 15:15 06:45 00:00 00:00
Minimum _ -2,0 C 27 % 1020,9 hPa - 0,0 km/h (0 Bft) - - - - - - -4,8 C -2,0 C 0,0 km/h (0 Bft) 0,00 %
_ Max-Zeit 16:30 07:00 06:45 00:00 12:00 - - 06:45 00:00 10:30 15:00 14:15 16:30 09:00 00:00
Maximum _ 14,1 C 86 % 1027,5 hPa 0,0 l/m 2,9 km/h
W-SW (1 Bft)
- - 15 min 0,000 mm 3,0 UV-I 450 W/m -0,3 C 14,1 C 4,0 km/h
W (1 Bft)
0,00 %
Durchschnitt _ 5,0 C 61 % 1024,5 hPa #0,0 l/m 0,3 km/h (0 Bft) W-SW - #7:30 h #0,000 mm 1,8 UV-I 261 W/m -2,6 C 5,0 C 0,9 km/h (0 Bft) 0,00 %